ASTRO-H (HITOMI)

Last updated on Mon Sep 15 2025 00:02:15 GMT+0000 (Coordinated Universal Time)

1 41337U 16012A 25257.12369372 .00002203 00000+0 13187-3 0 9991 2 41337 31.0001 54.7275 0010130 359.2999 0.7623 15.08515103525533
UTC large
Height (km)
Speed (km/s)
/
Latitude / Longitude
Inclination (degrees)
Orbital Period (minutes)
Azimuth
Elevation
Range (km)
Doppler Factor

Next 0 passes for location: London (51.5072 / 0.1276)

Sorry there are no passes over London.